Location: Malvern Link
(52.1333°N, 2.3000°W)
Time: 21:10:56
(UTC+00:00)

SPROUT - Pass Details

Date: 04 July 2022
Orbit: 588 x 598 km, 97.9° (Epoch: 14 August)

Event Time Altitude Azimuth Distance (km) Brightness Sun altitude
Exits shadow 23:19:41 - 109° (ESE) 2,300 ? -14.1°
Reaches altitude 10° 23:20:58 10° 98° (E) 1,921 ? -14.2°
Maximum altitude 23:23:38 17° 57° (ENE) 1,526 ? -14.3°
Drops below altitude 10° 23:26:20 10° 17° (NNE) 1,933 ? -14.3°
Sets 23:29:07 0° 358° (N) 2,841 ? -14.4°
